Погода в Сургуте

Погода в Сургуте : погода сейчас, прогноз погоды и архив. Всё, что Вы хотите узнать о погоде в Сургуте!

Хотите узнать прогноз погоды в Сургуте? Тогда Вам сюда: Погода в Сургуте

Поиск расширенной информации на нашем сайте:

Другие новости

Новости СМИ2

Главная страница сайта

Новости сайта

03.07.2017

Напоминаем, что на нашем специализированном сайте Метеоцентр.Азия вы можете получить высокодетализированные автоматические прогнозы погоды по пунктам России, СНГ и мира в авиационном формате (включающие направление и скорость ветра, видимость, явления погоды, количество и форму облачности, нижнюю и верхнюю границу облачности).


Погода в Сургуте - сегодня

Время (UTC), дата Ветер
(°,м/с) 
Видим.   Явления Облачность Т
(°С)
Тd
(°С)
f(%) Тe
(°С)
Pmin
(гПа)
dP
(гПа)
Po
(мм)
O2
(г/м3)
Тmin Tmax R s Состояние
почвы
21 19.07.17 280 (З) 4000 м    ясно 
+13.7 +13.7 100 +21  1013.1  0.3  755  287           
00 20.07.17 тихо ()   4000 м    ясно 
+16.5 +14.6 89 +24  1013.2  0.1  755  284           
03 20.07.17 280 (З) 4000 м    4/0 верхняя 
[Ci fib]
+22.2 +14.7 62 +30  1013.4  0.4  755  278  +12.4         
06 20.07.17 040 (СВ) 4000 м    3/3 1200 м 
[Cu hum]
+26.2 +13.3 45 +32  1013.2  -0.1  755  275           
09 20.07.17 330 (СЗ) 4000 м    4/4 1200 м 
[Cu hum]
+27.3 +11.9 38 +31  1012.4  -0.8  754  274           
12 20.07.17 320 (СЗ) 5000 м  гроза, ливневой дождь  6/5 600 м кучево-дожд., средняя 
[Cb cap|Ac trans]
+19.7 +15.4 76 +30  1012.2  -0.4  754  280           
15 20.07.17 010 (С) 4000 м  мгла  8/3 1200 м кучево-дожд., верхняя 
[Cb cap|Ci fib]
+20.6 +16.5 77 +32  1012.6  0.5  754  279    +27.9       
18 20.07.17 030 (СВ) 4000 м  мгла  6/0 средняя 
[Ac trans]
+19.3 +14.8 75 +28  1013  0.3  755  281           
21 20.07.17 тихо ()   4000 м  дымка  6/0 средняя 
[Ac trans]
+16.3 +15.8 97 +26  1013.2  0.1  755  284           
00 21.07.17 120 (ЮВ) 4000 м  гроза без осадков  9/3 1200 м кучево-дожд., средняя 
[Cb cap|Ac trans]
+16.6 +15.9 96 +27  1014.4  1.2  756  284           
03 21.07.17 040 (СВ) 4000 м    6/1 1200 м кучево-дожд., средняя 
[Cb cap|Ac trans]
+22.8 +16.1 66 +33  1014.3  0.1  756  278  +14.5         
06 21.07.17 100 (В) 4000 м    6/4 1200 м средняя 
[Cu med, cong|Ac trans]
+26.8 +13.5 44 +33  1014.4  0.2  756  275           
09 21.07.17 050 (СВ) 4000 м  гроза без осадков  6/1 1200 м кучево-дожд., средняя 
[Cb cap|Ac trans]
+26.8 +13.5 44 +33  1013.7  -0.6  755  275           
12 21.07.17 040 (СВ) 6-10{16}  4000 м  гроза без осадков  6/4 1110 м кучево-дожд., средняя 
[Cb cap|Ac trans]
+24.1 +10.8 43 +26  1013.4  -0.4  755  278           
15 21.07.17 060 (СВ) 4000 м    5/1 1000 м кучево-дожд., верхняя 
[Cb cap|Ci fib]
+19.5 +15.1 76 +30  1014.3  0.7  756  281    +28.3       
18 21.07.17 030 (СВ) 4000 м    5/0 средняя 
[Ac trans]
+17.4 +15.6 89 +29  1014.5  0.2  756  283           
21 21.07.17 тихо ()   4000 м  дымка  5/0 средняя 
[Ac trans]
+15.8 +15.8 100 +26  1014.3  -0.3  755  284           
00 22.07.17 тихо ()   4000 м  дымка  4/0 средняя 
[Ac trans]
+17.8 +17.8 100 +31  1014.5  0.3  756  282           
03 22.07.17 100 (В) 4000 м    ясно 
+25.5 +15.8 55 +35  1014  -0.3  755  275  +15.2         
06 22.07.17 060 (СВ) 4000 м    6/4 1200 м средняя 
[Cu med, cong|Ac trans]
+28 +13.4 41 +34  1013.7  -0.3  755  273           
09 22.07.17 320 (СЗ) 4000 м  в посл. час гроза  8/4 1200 м кучево-дожд., средняя 
[Cb cap|Ac trans]
+26.7 +14.8 48 +35  1012.8  -0.9  755  274           
12 22.07.17 300 (СЗ) 4000 м    8/0 верхняя 
[Ci sp]
+26.8 +16.8 54 +39  1012.5  -0.3  754  273           
15 22.07.17 160 (Ю) 4000 м  гроза без осадков  8/4 1200 м кучево-дожд., средняя 
[Cb cap|Ac trans]
+22.5 +14.7 61 +31  1012.7  0.1  754  278    +29.7       
18 22.07.17 360 (С) 4000 м    8/3 1200 м кучево-дожд., верхняя 
[Cb cap|Ci fib]
+17.9 +14.5 81 +27  1012.4  -0.4  754  282           
21 22.07.17 140 (ЮВ) 4000 м  дымка  ясно 
+14.9 +14.9 100 +24  1012  -0.5  754  285           
Время (UTC), дата Ветер
(°,м/с) 
Видим.   Явления Облачность Т
(°С)
Тd
(°С)
f(%) Тe
(°С)
Pmin
(гПа)
dP
(гПа)
Po
(мм)
O2
(г/м3)
Тmin Tmax R s Состояние
почвы

Для получения пояснительной информации подведите курсор к названию столбца.

ПОГОДА в Сургуте - архив

Всё, что Вы хотите узнать о погоде в Сургуте - удобно и подробно!

Выберите нужную дату (начиная с 1 января 2015* года) и нажмите кнопку "Найти".
Будут отображены архивные сводки погоды по пункту Сургут, начиная с указанной даты.


Отображать данные в формате CSV (для использования в таблицах Excel)


Внимание! Наш архив погоды предназначен исключительно для личного некоммерческого использования в познавательных целях. Если Вам необходимы официальные справки о состоянии погоды (для производственных, юридических, коммерческих и т.п. целей), обращайтесь в органы Росгидромета.

*Примечание: данная дата относится к архиву по метеостанциям СССР (Россия, СНГ, Балтия).
Архив по метеостанциям Зарубежной Европы и Азии (кроме Китая) хранится 10 дней, по другим регионам земного шара (Китай, Африка, Америка, Австралия, Океания) - 1 день.

Сургут - район местоположения метеостанции


Название, широта, долгота, высота метеостанции:
Сургут 61.2°ш. 73.6°д. 56 м над ур. моря [Российская Федерация]

Дополнительная информация

В oтличие oт бoльшинства пoгoдных сайтoв мы публикуем пoдрoбную метеoинфoрмацию в детальнoм прoфессиoнальнoм фoрмате.

Характеристики температуры и влажнoсти вoздуха измеряются на высoте 2 м в тени вдали oт зданий и деревьев.
Скoрoсть ветра измеряется на высoте 10 м (на урoвне рoста челoвека скoрoсть ветра ниже в 1.5-2 раза). Если метеoстанция нахoдится в гoрoде или в лесу, тo скoрoсть ветра занижена на 2-4 м/с пo сравнению с oткрытым местoм. Скoрoсть ветра над акватoриями крупных рек и oзёр, а также на вершинах хoлмoв на 2-5 м/с выше, чем в oбычных услoвиях.
Атмoсфернoе давление в разных тoчках местнoсти мoжет значительнo oтличаться oт давления на метеoстанции, в зависимoсти oт услoвий рельефа (при пoдъёме на 10 м давление пoнижается примернo на 1 мм рт.ст.).